Notices

What's New in latest Release from April 7th, 2021:

- Updated Glossary, including Speed of Maximum Gust, and Total Hourly Precipitation

- Updated national and regional climate services offices contacts and prices information

- Addition of station inventory lists for 1981-2010, 1971-2000, and 1961-1990 Normals.

If you haven't already, please take our survey and provide feedback about our website: https://eccc.sondage-survey.ca/f/LanguageSelection.aspx?s=442ca660-fcf1-47c0-95a9-59707d6fd709

Hourly Data Report for September 25, 2015

IQALUIT CLIMATE
NUNAVUT

63°44'50.000" N
68°32'40.000" W
33.50 m
2402592
71321
XFB

Download Data

Hourly Data (September 2015)
Hourly Data Report for September 25, 2015
TIME
LST
Temp Definition
°C
Dew Point Definition
°C
Rel Hum Definition
%
Precip. Amount Definition
mm

Wind Dir Definition
10's deg

Wind Spd Definition
km/h
Visibility Definition
km
Stn Press Definition
kPa
Hmdx Definition


Wind Chill Definition


Weather Definition


00:00 -0.4 -2.2 88 0.0 32 19   101.29   -6 LegendNANA
01:00 -0.1 -2.4 85 0.0 33 22   101.34   -6 LegendNANA
02:00 -0.8 -2.7 87 0.0 32 15   101.40   -5 LegendNANA
03:00 -1.1 -3.3 85 0.0 32 20   101.45   -7 LegendNANA
04:00 -1.4 -3.6 85 0.0 34 18   101.49   -7 LegendNANA
05:00 -1.7 -3.8 85 0.0 33 10   101.53   -5 LegendNANA
06:00 -0.3 -3.8 77 0.0 33 12   101.54   -4 LegendNANA
07:00 0.3 -3.8 74 0.0 32 18   101.55     LegendNANA
08:00 0.7 -3.0 76 0.0 33 22   101.56     LegendNANA
09:00 0.5 -2.8 78 0.0 32 24   101.57     LegendNANA
10:00 0.2 -2.3 83 0.2 32 30   101.57     LegendNANA
11:00 1.1 -2.5 77 0.0 33 24   101.57     LegendNANA
12:00 1.9 -3.9 65 0.0 31 30   101.55     LegendNANA
13:00 0.9 -3.1 74 0.0 33 36   101.58     LegendNANA
14:00 1.9 -3.3 68 0.0 33 33   101.59     LegendNANA
15:00 0.9 -3.0 75 0.0 32 33   101.64     LegendNANA
16:00 0.6 -2.6 79 0.0 32 29   101.67     LegendNANA
17:00 0.5 -3.3 76 0.0 32 22   101.68     LegendNANA
18:00 0.6 -5.0 66 0.0 32 28   101.70     LegendNANA
19:00 0.4 -6.9 58 0.0 33 27   101.72     LegendNANA
20:00 0.0 -5.2 68 0.0 32 27   101.73   -6 LegendNANA
21:00 -0.7 -3.8 80 0.0 32 31   101.74   -7 LegendNANA
22:00 -0.9 -4.5 77 0.2 32 27   101.72   -7 LegendNANA
23:00 -1.1 -5.0 75 0.0 31 30   101.72   -8 LegendNANA

Notes on Data Quality.

Legend

  • E = Estimated
  • M = Missing
  • NA = Not Available*
  • [empty] = Indicates an unobserved value
Date modified: